This demonstration page uses our WeatherBlox Daily Observations layout. Learn more.

39.29038, -76.61219

Hourly Observations for October 14, 2015

Temp ( °F °C ) Dew Point ( °F °C ) Humidity (%) Winds ( mph kmh ) Pressure ( in mb ) Visibility ( mi km ) Precip ( " mm )
12:54 am 00:54 undefined 63 17.2 47 8.3 56 56 undefined N/A 29.75 1007 N/A 0 0
1:54 am 01:54 undefined 61 16.1 47 8.3 60 60 undefined N/A 29.75 1007 N/A 0 0
2:54 am 02:54 undefined 59 15 48 8.9 67 67 undefined N/A 29.75 1007 N/A 0 0
3:54 am 03:54 undefined 58 14.4 47 8.3 67 67 undefined N/A 29.75 1008 N/A 0 0
4:54 am 04:54 undefined 57 13.9 47 8.3 69 69 undefined N/A 29.75 1008 N/A 0 0
5:54 am 05:54 undefined 57 13.9 47 8.3 69 69 undefined N/A 29.77 1008 N/A 0 0
6:54 am 06:54 undefined 57 13.9 47 8.3 69 69 undefined N/A 29.78 1008 N/A 0 0
7:54 am 07:54 undefined 59 15 46 7.8 62 62 undefined N/A 29.79 1009 N/A 0 0
8:54 am 08:54 undefined 62 16.7 46 7.8 56 56 undefined N/A 29.81 1010 N/A 0 0
9:54 am 09:54 undefined 64 17.8 44 6.7 48 48 undefined N/A 29.83 1010 N/A 0 0
10:54 am 10:54 undefined 66 18.9 44 6.7 45 45 undefined N/A 29.83 1010 N/A 0 0
11:54 am 11:54 undefined 65 18.3 44 6.7 47 47 undefined N/A 29.84 1011 N/A 0 0
12:54 pm 12:54 undefined 67 19.4 43 6.1 42 42 undefined N/A 29.83 1010 N/A 0 0
1:54 pm 13:54 undefined 67 19.4 43 6.1 42 42 undefined N/A 29.82 1010 N/A 0 0
2:54 pm 14:54 undefined 67 19.4 44 6.7 44 44 undefined N/A 29.82 1010 N/A 0 0
3:54 pm 15:54 undefined 66 18.9 43 6.1 43 43 undefined N/A 29.83 1010 N/A 0 0
4:54 pm 16:54 undefined 65 18.3 43 6.1 45 45 undefined N/A 29.84 1011 N/A 0 0
5:54 pm 17:54 undefined 64 17.8 43 6.1 46 46 undefined N/A 29.85 1011 N/A 0 0
6:54 pm 18:54 undefined 63 17.2 42 5.6 47 47 undefined N/A 29.87 1012 N/A 0 0
7:54 pm 19:54 undefined 61 16.1 43 6.1 52 52 undefined N/A 29.89 1012 N/A 0 0
8:54 pm 20:54 undefined 62 16.7 42 5.6 48 48 undefined N/A 29.91 1013 N/A 0 0
9:54 pm 21:54 undefined 60 15.6 42 5.6 52 52 undefined N/A 29.92 1013 N/A 0 0
10:54 pm 22:54 undefined 59 15 43 6.1 56 56 undefined N/A 29.93 1014 N/A 0 0
11:54 pm 23:54 undefined 58 14.4 43 6.1 58 58 undefined N/A 29.94 1014 N/A 0 0

Powered by AerisWeather